Regional Weather Roundup
Issued by NWS Raleigh/Durham, NC

Home | Current Version | Previous Version | Text Only | Print | Product List | Glossary On
Versions: 1 2 3 4 5 6 7 8 9 10 11 12 13 14 15 16 17 18 19 20 21 22 23 24 25 26 27 28 29 30 31 32 33 34 35 36 37 38 39 40 41 42 43 44 45 46 47 48 49 50
562
ASUS42 KRAH 171110
RWRRAH
NORTH CAROLINA WEATHER ROUNDUP
NATIONAL WEATHER SERVICE RALEIGH NC
700 AM EDT SAT AUG 17 2019

NOTE: "FAIR" INDICATES FEW OR NO CLOUDS BELOW 12,000 FEET WITH NO
SIGNIFICANT WEATHER AND/OR OBSTRUCTIONS TO VISIBILITY.

NCZ001-053-055-056-065-067-171200-
WESTERN NORTH CAROLINA

CITY           SKY/WX    TMP DP  RH WIND       PRES   REMARKS
ASHEVILLE      FAIR      64  60  87 NW3       30.09S
JEFFERSON      FAIR      60  59  97 CALM      30.14S
MORGANTON      FAIR      63  61  93 CALM      30.06S FOG
HICKORY        FAIR      69  67  93 CALM      30.03R
WILKESBORO     NOT AVBL
RUTHERFORDTON  FAIR      70  66  88 CALM      30.02S
MOUNT AIRY     FAIR      69  67  90 CALM      30.05S
BOONE          FAIR      58  58 100 CALM      30.15S
$$

NCZ021-022-025-041-071-084-088-171200-
CENTRAL NORTH CAROLINA

CITY           SKY/WX    TMP DP  RH WIND       PRES   REMARKS
CHARLOTTE      FAIR      72  70  93 N3        30.00R
GREENSBORO     CLOUDY    74  73  97 NW3       30.01R
WINSTON-SALEM  FAIR      73  71  93 CALM      30.03R
RALEIGH-DURHAM CLOUDY    74  72  93 SE3       30.00S
FORT BRAGG     CLOUDY    73  73 100 CALM      29.99R
FAYETTEVILLE   FOG       73  73 100 CALM      29.99R VSB<1/4
BURLINGTON     FOG       72  70  93 SE3       30.01R VSB 1/4
ROXBORO        FOG       70  70 100 CALM      30.04R VSB 1/4
HENDERSON      CLOUDY    71  71  99 S5        30.01S FOG
LOUISBURG      CLOUDY    73  72  94 CALM      30.03F
LAURINBURG     FOG       74  73  97 CALM      30.00R VSB 1/4
$$

NCZ011-015-027-028-043-044-047-080-103-171200-
NORTHEASTERN NORTH CAROLINA

CITY           SKY/WX    TMP DP  RH WIND       PRES   REMARKS
ROCKY MT-WILSO CLOUDY    75  73  93 W6        30.00R
GREENVILLE     CLOUDY    73  73 100 W3        30.02R
WASHINGTON     CLOUDY    74  73  93 CALM      30.01R
ELIZABETH CITY CLOUDY    75  73  93 W9        29.98R
MANTEO         MOCLDY    76  74  96 W5        29.98R
CAPE HATTERAS  FAIR      78  75  90 W13G22    29.99R
$$

NCZ078-087-090-091-093-098-101-171200-
SOUTHEASTERN NORTH CAROLINA

CITY           SKY/WX    TMP DP  RH WIND       PRES   REMARKS
GOLDSBORO      CLOUDY    74  74 100 CALM      29.99R
KINSTON        CLOUDY    73  73 100 CALM      30.01S FOG
KENANSVILLE    CLOUDY    73 N/A N/A CALM      30.00S HAZE
NEW BERN       MOCLDY    74  74 100 CALM      30.01R
CHERRY POINT   FAIR      76  71  85 CALM      30.01R
BEAUFORT       FAIR      76  72  87 W5        30.00R
JACKSONVILLE   MOCLDY    73  71  93 CALM      29.99R
WILMINGTON     LGT RAIN  77  75  93 SW12G20   30.00R
$$





USA.gov is the U.S. government's official web portal to all federal, state and local government web resources and services.